Time,TemperatureF,DewpointF,PressureIn,WindDirection,WindDirectionDegrees,WindSpeedMPH,WindSpeedGustMPH,Humidity,HourlyPrecipIn,Conditions,Clouds,dailyrainin,SoftwareType,DateUTC
2013-12-16 00:00:00,27.9,23.4,30.13,WSW,248,8.0,15.0,83,0.00,,,0.00,Weather View 32 v70,2013-12-16 05:00:00,
2013-12-16 00:10:00,27.8,23.6,30.12,SW,233,8.0,15.0,84,0.00,,,0.00,Weather View 32 v70,2013-12-16 05:10:00,
2013-12-16 00:20:00,27.6,23.7,30.12,WSW,240,12.0,15.0,85,0.00,,,0.00,Weather View 32 v70,2013-12-16 05:20:00,
2013-12-16 00:21:00,27.6,23.7,30.12,WSW,240,12.0,15.0,85,0.00,,,0.00,Weather View 32 v70,2013-12-16 05:21:00,
2013-12-16 00:30:00,27.5,23.9,30.12,WSW,238,5.0,15.0,86,0.00,,,0.00,Weather View 32 v70,2013-12-16 05:30:00,
2013-12-16 00:40:00,27.5,24.1,30.12,SW,234,7.0,15.0,87,0.00,,,0.00,Weather View 32 v70,2013-12-16 05:40:00,
2013-12-16 00:50:00,27.5,24.1,30.12,SW,233,4.0,15.0,87,0.00,,,0.00,Weather View 32 v70,2013-12-16 05:50:00,
2013-12-16 01:00:00,27.5,24.1,30.11,SW,232,5.0,13.0,87,0.00,,,0.00,Weather View 32 v70,2013-12-16 06:00:00,
2013-12-16 01:10:00,27.4,24.0,30.11,SW,230,5.0,13.0,87,0.00,,,0.00,Weather View 32 v70,2013-12-16 06:10:00,
2013-12-16 01:20:00,27.4,24.3,30.11,SW,231,0.0,12.0,88,0.00,,,0.00,Weather View 32 v70,2013-12-16 06:20:00,
2013-12-16 01:30:00,27.4,24.3,30.11,SW,230,0.0,11.0,88,0.00,,,0.00,Weather View 32 v70,2013-12-16 06:30:00,
2013-12-16 01:40:00,27.5,24.4,30.11,SW,230,0.0,11.0,88,0.00,,,0.00,Weather View 32 v70,2013-12-16 06:40:00,
2013-12-16 01:50:00,27.5,24.4,30.11,SW,230,0.0,10.0,88,0.00,,,0.00,Weather View 32 v70,2013-12-16 06:50:00,
2013-12-16 02:00:00,27.6,24.8,30.11,SW,231,0.0,10.0,89,0.00,,,0.00,Weather View 32 v70,2013-12-16 07:00:00,
2013-12-16 02:10:00,27.6,24.8,30.11,SW,230,0.0,7.0,89,0.00,,,0.00,Weather View 32 v70,2013-12-16 07:10:00,
2013-12-16 02:20:00,27.7,24.9,30.10,SW,230,0.0,7.0,89,0.00,,,0.00,Weather View 32 v70,2013-12-16 07:20:00,
2013-12-16 02:30:00,27.8,25.0,30.11,SW,228,7.0,8.0,89,0.00,,,0.00,Weather View 32 v70,2013-12-16 07:30:00,
2013-12-16 02:40:00,27.8,25.0,30.11,SW,228,0.0,8.0,89,0.00,,,0.00,Weather View 32 v70,2013-12-16 07:40:00,
2013-12-16 02:50:00,27.8,25.2,30.12,SW,228,0.0,8.0,90,0.00,,,0.00,Weather View 32 v70,2013-12-16 07:50:00,
2013-12-16 03:00:00,27.8,25.2,30.12,SW,228,0.0,8.0,90,0.00,,,0.00,Weather View 32 v70,2013-12-16 08:00:00,
2013-12-16 03:10:00,27.8,25.2,30.12,SW,228,0.0,8.0,90,0.00,,,0.00,Weather View 32 v70,2013-12-16 08:10:00,
2013-12-16 03:20:00,27.7,25.4,30.12,SW,228,0.0,8.0,91,0.00,,,0.00,Weather View 32 v70,2013-12-16 08:20:00,
2013-12-16 03:30:00,27.7,25.4,30.12,SW,228,0.0,7.0,91,0.00,,,0.00,Weather View 32 v70,2013-12-16 08:30:00,
2013-12-16 03:40:00,27.7,25.4,30.11,SW,228,0.0,7.0,91,0.00,,,0.00,Weather View 32 v70,2013-12-16 08:40:00,
2013-12-16 03:50:00,27.7,25.4,30.11,SW,228,0.0,7.0,91,0.00,,,0.00,Weather View 32 v70,2013-12-16 08:50:00,
2013-12-16 04:00:00,27.8,25.5,30.11,SW,228,0.0,7.0,91,0.00,,,0.00,Weather View 32 v70,2013-12-16 09:00:00,
2013-12-16 04:10:00,27.8,25.8,30.11,SW,228,0.0,5.0,92,0.00,,,0.00,Weather View 32 v70,2013-12-16 09:10:00,
2013-12-16 04:20:00,27.8,25.8,30.11,SW,228,0.0,5.0,92,0.00,,,0.00,Weather View 32 v70,2013-12-16 09:20:00,
2013-12-16 04:30:00,27.8,25.8,30.11,SW,228,0.0,5.0,92,0.00,,,0.00,Weather View 32 v70,2013-12-16 09:30:00,
2013-12-16 04:40:00,27.9,25.9,30.10,SW,228,0.0,5.0,92,0.00,,,0.00,Weather View 32 v70,2013-12-16 09:40:00,
2013-12-16 04:50:00,27.9,25.9,30.10,SW,228,0.0,2.0,92,0.00,,,0.00,Weather View 32 v70,2013-12-16 09:50:00,
2013-12-16 05:00:00,27.9,25.9,30.10,SW,228,0.0,0.0,92,0.00,,,0.00,Weather View 32 v70,2013-12-16 10:00:00,
2013-12-16 05:10:00,27.9,25.9,30.10,SW,228,0.0,0.0,92,0.00,,,0.00,Weather View 32 v70,2013-12-16 10:10:00,
2013-12-16 05:20:00,28.0,26.0,30.10,SW,228,0.0,0.0,92,0.00,,,0.00,Weather View 32 v70,2013-12-16 10:20:00,
2013-12-16 05:30:00,28.0,26.0,30.10,SW,228,0.0,0.0,92,0.00,,,0.00,Weather View 32 v70,2013-12-16 10:30:00,
2013-12-16 05:40:00,28.1,26.1,30.10,SW,228,0.0,0.0,92,0.00,,,0.00,Weather View 32 v70,2013-12-16 10:40:00,
2013-12-16 05:50:00,28.2,26.4,30.10,SW,228,0.0,0.0,93,0.00,,,0.00,Weather View 32 v70,2013-12-16 10:50:00,
2013-12-16 06:00:00,28.2,26.4,30.10,SW,228,0.0,0.0,93,0.00,,,0.00,Weather View 32 v70,2013-12-16 11:00:00,
2013-12-16 06:10:00,28.3,26.3,30.09,SW,228,0.0,0.0,92,0.00,,,0.00,Weather View 32 v70,2013-12-16 11:10:00,
2013-12-16 06:20:00,28.4,26.6,30.09,SW,228,0.0,0.0,93,0.00,,,0.00,Weather View 32 v70,2013-12-16 11:20:00,
2013-12-16 06:30:00,28.4,26.6,30.10,SW,228,0.0,0.0,93,0.00,,,0.00,Weather View 32 v70,2013-12-16 11:30:00,
2013-12-16 06:40:00,28.4,26.6,30.10,SW,228,0.0,0.0,93,0.00,,,0.00,Weather View 32 v70,2013-12-16 11:40:00,
2013-12-16 06:50:00,28.4,26.6,30.10,SW,228,0.0,0.0,93,0.00,,,0.00,Weather View 32 v70,2013-12-16 11:50:00,
2013-12-16 07:00:00,28.5,26.7,30.11,SW,228,0.0,0.0,93,0.00,,,0.00,Weather View 32 v70,2013-12-16 12:00:00,
2013-12-16 07:10:00,28.4,26.6,30.11,SW,228,0.0,0.0,93,0.00,,,0.00,Weather View 32 v70,2013-12-16 12:10:00,
2013-12-16 07:20:00,28.3,26.5,30.11,SW,228,0.0,0.0,93,0.00,,,0.00,Weather View 32 v70,2013-12-16 12:20:00,
2013-12-16 07:25:00,28.3,26.5,30.11,SW,228,0.0,0.0,93,0.00,,,0.00,Weather View 32 v70,2013-12-16 12:25:00,
2013-12-16 07:40:00,28.3,26.5,30.11,SW,228,0.0,0.0,93,0.00,,,0.00,Weather View 32 v70,2013-12-16 12:40:00,
2013-12-16 07:50:00,28.3,26.5,30.12,SW,228,0.0,0.0,93,0.00,,,0.00,Weather View 32 v70,2013-12-16 12:50:00,
2013-12-16 08:00:00,28.3,26.5,30.12,SW,228,0.0,0.0,93,0.00,,,0.00,Weather View 32 v70,2013-12-16 13:00:00,
2013-12-16 08:10:00,28.2,26.4,30.12,SW,228,0.0,0.0,93,0.00,,,0.00,Weather View 32 v70,2013-12-16 13:10:00,
2013-12-16 08:20:00,28.2,26.4,30.12,SW,228,0.0,0.0,93,0.00,,,0.00,Weather View 32 v70,2013-12-16 13:20:00,
2013-12-16 08:26:00,28.2,26.4,30.12,SW,228,0.0,0.0,93,0.00,,,0.00,Weather View 32 v70,2013-12-16 13:26:00,
2013-12-16 08:40:00,28.2,26.4,30.12,SW,228,0.0,0.0,93,0.00,,,0.00,Weather View 32 v70,2013-12-16 13:40:00,
2013-12-16 08:50:00,28.3,26.5,30.12,SW,228,0.0,0.0,93,0.00,,,0.00,Weather View 32 v70,2013-12-16 13:50:00,
2013-12-16 09:00:00,28.3,26.5,30.12,SW,228,0.0,0.0,93,0.00,,,0.00,Weather View 32 v70,2013-12-16 14:00:00,
2013-12-16 09:10:00,28.3,26.8,30.12,SW,228,0.0,0.0,94,0.00,,,0.00,Weather View 32 v70,2013-12-16 14:10:00,
2013-12-16 09:20:00,28.4,26.9,30.12,SW,228,0.0,0.0,94,0.00,,,0.00,Weather View 32 v70,2013-12-16 14:20:00,
2013-12-16 09:26:00,28.4,26.9,30.12,SW,228,0.0,0.0,94,0.00,,,0.00,Weather View 32 v70,2013-12-16 14:26:00,
2013-12-16 09:40:00,28.4,26.6,30.12,SW,228,0.0,0.0,93,0.00,,,0.00,Weather View 32 v70,2013-12-16 14:40:00,
2013-12-16 09:50:00,28.3,26.5,30.12,SW,228,0.0,0.0,93,0.00,,,0.00,Weather View 32 v70,2013-12-16 14:50:00,
2013-12-16 10:00:00,28.4,26.9,30.13,SW,228,0.0,0.0,94,0.00,,,0.00,Weather View 32 v70,2013-12-16 15:00:00,
2013-12-16 10:10:00,28.6,27.1,30.13,SW,228,0.0,0.0,94,0.00,,,0.00,Weather View 32 v70,2013-12-16 15:10:00,
2013-12-16 10:20:00,28.8,27.3,30.13,SW,228,0.0,0.0,94,0.00,,,0.00,Weather View 32 v70,2013-12-16 15:20:00,
2013-12-16 10:27:00,28.8,27.3,30.13,SW,228,0.0,0.0,94,0.00,,,0.00,Weather View 32 v70,2013-12-16 15:27:00,
2013-12-16 10:40:00,28.5,27.0,30.13,SW,228,0.0,4.0,94,0.00,,,0.00,Weather View 32 v70,2013-12-16 15:40:00,
2013-12-16 10:50:00,28.3,26.5,30.12,SW,228,0.0,5.0,93,0.00,,,0.00,Weather View 32 v70,2013-12-16 15:50:00,
2013-12-16 11:00:00,28.1,26.3,30.12,SW,228,4.0,5.0,93,0.00,,,0.00,Weather View 32 v70,2013-12-16 16:00:00,
2013-12-16 11:10:00,28.2,26.4,30.12,SW,228,4.0,5.0,93,0.00,,,0.00,Weather View 32 v70,2013-12-16 16:10:00,
2013-12-16 11:20:00,28.3,26.5,30.12,SW,228,0.0,5.0,93,0.00,,,0.00,Weather View 32 v70,2013-12-16 16:20:00,
2013-12-16 11:27:00,28.3,26.5,30.12,SW,228,0.0,5.0,93,0.00,,,0.00,Weather View 32 v70,2013-12-16 16:27:00,
2013-12-16 11:40:00,28.4,26.6,30.11,SW,228,2.0,5.0,93,0.00,,,0.00,Weather View 32 v70,2013-12-16 16:40:00,
2013-12-16 11:50:00,28.5,26.5,30.11,SW,228,0.0,5.0,92,0.00,,,0.00,Weather View 32 v70,2013-12-16 16:50:00,
2013-12-16 12:00:00,28.6,26.6,30.10,SW,228,0.0,5.0,92,0.00,,,0.00,Weather View 32 v70,2013-12-16 17:00:00,
2013-12-16 12:10:00,28.8,26.8,30.10,SW,228,0.0,4.0,92,0.00,,,0.00,Weather View 32 v70,2013-12-16 17:10:00,
2013-12-16 12:20:00,29.0,27.0,30.10,SW,228,0.0,3.0,92,0.00,,,0.00,Weather View 32 v70,2013-12-16 17:20:00,
2013-12-16 12:28:00,29.0,27.0,30.10,SW,228,0.0,3.0,92,0.00,,,0.00,Weather View 32 v70,2013-12-16 17:28:00,
2013-12-16 12:40:00,29.6,27.6,30.08,SW,228,0.0,5.0,92,0.00,,,0.00,Weather View 32 v70,2013-12-16 17:40:00,
2013-12-16 12:50:00,29.9,27.6,30.08,SW,228,0.0,5.0,91,0.00,,,0.00,Weather View 32 v70,2013-12-16 17:50:00,
2013-12-16 13:00:00,29.8,27.2,30.08,SW,228,2.0,5.0,90,0.00,,,0.00,Weather View 32 v70,2013-12-16 18:00:00,
2013-12-16 13:10:00,29.7,27.1,30.07,SW,228,0.0,5.0,90,0.00,,,0.00,Weather View 32 v70,2013-12-16 18:10:00,
2013-12-16 13:20:00,29.7,27.1,30.06,SW,228,1.0,5.0,90,0.00,,,0.00,Weather View 32 v70,2013-12-16 18:20:00,
2013-12-16 13:29:00,29.7,27.1,30.06,SW,228,1.0,5.0,90,0.00,,,0.00,Weather View 32 v70,2013-12-16 18:29:00,
2013-12-16 13:40:00,29.7,26.9,30.06,SW,228,0.0,6.0,89,0.01,,,0.01,Weather View 32 v70,2013-12-16 18:40:00,
2013-12-16 13:50:00,29.9,27.1,30.06,SW,228,0.0,6.0,89,0.02,,,0.02,Weather View 32 v70,2013-12-16 18:50:00,
2013-12-16 14:00:00,30.0,27.2,30.06,SW,228,0.0,6.0,89,0.02,,,0.02,Weather View 32 v70,2013-12-16 19:00:00,
2013-12-16 14:10:00,30.1,27.2,30.05,SW,228,0.0,6.0,89,0.02,,,0.02,Weather View 32 v70,2013-12-16 19:10:00,
2013-12-16 14:20:00,30.2,27.3,30.05,SW,228,0.0,6.0,89,0.03,,,0.03,Weather View 32 v70,2013-12-16 19:20:00,
2013-12-16 14:29:00,30.2,27.3,30.05,SW,228,0.0,6.0,89,0.03,,,0.03,Weather View 32 v70,2013-12-16 19:29:00,
2013-12-16 14:40:00,30.3,27.4,30.04,SW,228,0.0,0.0,89,0.02,,,0.03,Weather View 32 v70,2013-12-16 19:40:00,
2013-12-16 14:50:00,30.4,27.3,30.04,SW,228,0.0,3.0,88,0.01,,,0.03,Weather View 32 v70,2013-12-16 19:50:00,
2013-12-16 15:00:00,30.4,27.3,30.05,SW,228,0.0,3.0,88,0.02,,,0.04,Weather View 32 v70,2013-12-16 20:00:00,
2013-12-16 15:10:00,30.4,27.3,30.05,SW,228,0.0,4.0,88,0.02,,,0.04,Weather View 32 v70,2013-12-16 20:10:00,
2013-12-16 15:20:00,30.4,27.3,30.05,SW,228,0.0,4.0,88,0.01,,,0.04,Weather View 32 v70,2013-12-16 20:20:00,
2013-12-16 15:30:00,30.4,27.3,30.05,SW,228,0.0,4.0,88,0.01,,,0.04,Weather View 32 v70,2013-12-16 20:30:00,
2013-12-16 15:40:00,30.4,27.3,30.06,SW,228,0.0,4.0,88,0.01,,,0.04,Weather View 32 v70,2013-12-16 20:40:00,
2013-12-16 15:50:00,30.4,27.3,30.07,SW,228,0.0,5.0,88,0.01,,,0.04,Weather View 32 v70,2013-12-16 20:50:00,
2013-12-16 16:00:00,30.3,27.2,30.07,West,270,2.0,7.0,88,0.00,,,0.04,Weather View 32 v70,2013-12-16 21:00:00,
2013-12-16 16:10:00,30.1,27.0,30.06,West,273,0.0,7.0,88,0.00,,,0.04,Weather View 32 v70,2013-12-16 21:10:00,
2013-12-16 16:20:00,29.8,26.7,30.07,West,276,4.0,7.0,88,0.00,,,0.04,Weather View 32 v70,2013-12-16 21:20:00,
2013-12-16 16:30:00,29.5,26.4,30.07,West,276,0.0,7.0,88,0.00,,,0.04,Weather View 32 v70,2013-12-16 21:30:00,
2013-12-16 16:40:00,29.3,26.5,30.06,West,276,6.0,7.0,89,0.00,,,0.04,Weather View 32 v70,2013-12-16 21:40:00,
2013-12-16 16:50:00,29.2,26.4,30.06,West,277,0.0,7.0,89,0.00,,,0.04,Weather View 32 v70,2013-12-16 21:50:00,
2013-12-16 17:00:00,29.0,26.2,30.06,West,277,2.0,7.0,89,0.00,,,0.04,Weather View 32 v70,2013-12-16 22:00:00,
2013-12-16 17:10:00,29.0,26.2,30.06,West,277,0.0,7.0,89,0.00,,,0.04,Weather View 32 v70,2013-12-16 22:10:00,
2013-12-16 17:20:00,29.0,26.2,30.06,West,277,0.0,7.0,89,0.00,,,0.04,Weather View 32 v70,2013-12-16 22:20:00,
2013-12-16 17:30:00,29.1,26.5,30.06,West,277,0.0,7.0,90,0.00,,,0.04,Weather View 32 v70,2013-12-16 22:30:00,
2013-12-16 18:00:00,29.2,26.6,30.07,West,277,0.0,5.0,90,0.00,,,0.04,Weather View 32 v70,2013-12-16 23:00:00,
2013-12-16 18:10:00,29.2,26.6,30.07,West,277,0.0,0.0,90,0.00,,,0.04,Weather View 32 v70,2013-12-16 23:10:00,
2013-12-16 18:20:00,29.3,26.7,30.07,West,277,0.0,0.0,90,0.00,,,0.04,Weather View 32 v70,2013-12-16 23:20:00,
2013-12-16 18:30:00,29.3,26.7,30.06,West,277,0.0,0.0,90,0.00,,,0.04,Weather View 32 v70,2013-12-16 23:30:00,
2013-12-16 18:40:00,29.3,26.7,30.06,West,277,5.0,5.0,90,0.00,,,0.04,Weather View 32 v70,2013-12-16 23:40:00,
2013-12-16 18:50:00,29.3,26.7,30.06,West,277,0.0,5.0,90,0.00,,,0.04,Weather View 32 v70,2013-12-16 23:50:00,
2013-12-16 19:00:00,29.2,26.6,30.06,West,277,0.0,5.0,90,0.00,,,0.04,Weather View 32 v70,2013-12-17 00:00:00,
2013-12-16 19:10:00,29.2,26.6,30.06,West,277,0.0,5.0,90,0.00,,,0.04,Weather View 32 v70,2013-12-17 00:10:00,
2013-12-16 19:20:00,29.2,26.6,30.05,West,277,0.0,5.0,90,0.00,,,0.04,Weather View 32 v70,2013-12-17 00:20:00,
2013-12-16 19:30:00,29.2,26.6,30.05,West,277,0.0,5.0,90,0.00,,,0.04,Weather View 32 v70,2013-12-17 00:30:00,
2013-12-16 19:40:00,29.3,27.0,30.05,West,277,0.0,5.0,91,0.00,,,0.04,Weather View 32 v70,2013-12-17 00:40:00,
2013-12-16 19:50:00,29.3,26.7,30.04,West,277,0.0,0.0,90,0.00,,,0.04,Weather View 32 v70,2013-12-17 00:50:00,
2013-12-16 20:00:00,29.4,27.1,30.05,West,277,0.0,0.0,91,0.00,,,0.04,Weather View 32 v70,2013-12-17 01:00:00,
2013-12-16 20:10:00,29.6,27.3,30.05,West,277,0.0,0.0,91,0.00,,,0.04,Weather View 32 v70,2013-12-17 01:10:00,
2013-12-16 20:20:00,29.7,27.4,30.04,West,277,0.0,0.0,91,0.00,,,0.04,Weather View 32 v70,2013-12-17 01:20:00,
2013-12-16 20:30:00,29.7,27.4,30.03,West,277,0.0,0.0,91,0.00,,,0.04,Weather View 32 v70,2013-12-17 01:30:00,
2013-12-16 20:40:00,29.6,27.3,30.03,West,277,0.0,0.0,91,0.00,,,0.04,Weather View 32 v70,2013-12-17 01:40:00,
2013-12-16 20:50:00,29.6,27.3,30.03,West,277,0.0,0.0,91,0.00,,,0.04,Weather View 32 v70,2013-12-17 01:50:00,
2013-12-16 21:00:00,29.5,27.2,30.02,West,277,0.0,0.0,91,0.00,,,0.04,Weather View 32 v70,2013-12-17 02:00:00,
2013-12-16 21:10:00,29.3,27.0,30.02,West,277,0.0,0.0,91,0.00,,,0.04,Weather View 32 v70,2013-12-17 02:10:00,
2013-12-16 21:20:00,29.1,26.8,30.01,West,277,0.0,0.0,91,0.00,,,0.04,Weather View 32 v70,2013-12-17 02:20:00,
2013-12-16 21:30:00,29.0,27.0,30.01,West,277,0.0,0.0,92,0.00,,,0.04,Weather View 32 v70,2013-12-17 02:30:00,
2013-12-16 21:40:00,29.1,27.1,29.99,West,277,0.0,5.0,92,0.00,,,0.04,Weather View 32 v70,2013-12-17 02:40:00,
2013-12-16 21:50:00,29.5,27.7,30.00,West,277,0.0,5.0,93,0.00,,,0.04,Weather View 32 v70,2013-12-17 02:50:00,
2013-12-16 22:00:00,29.7,27.9,30.00,West,277,0.0,5.0,93,0.00,,,0.04,Weather View 32 v70,2013-12-17 03:00:00,
2013-12-16 22:10:00,29.7,27.7,30.00,West,277,0.0,5.0,92,0.00,,,0.04,Weather View 32 v70,2013-12-17 03:10:00,
2013-12-16 22:20:00,29.5,27.5,30.01,West,277,0.0,5.0,92,0.00,,,0.04,Weather View 32 v70,2013-12-17 03:20:00,
2013-12-16 22:30:00,29.1,27.1,30.01,West,277,0.0,5.0,92,0.00,,,0.04,Weather View 32 v70,2013-12-17 03:30:00,
2013-12-16 22:40:00,29.4,27.6,30.01,West,277,0.0,2.0,93,0.00,,,0.04,Weather View 32 v70,2013-12-17 03:40:00,
2013-12-16 22:50:00,30.0,28.2,30.01,West,277,0.0,2.0,93,0.00,,,0.04,Weather View 32 v70,2013-12-17 03:50:00,
2013-12-16 23:00:00,30.9,29.4,30.01,West,277,0.0,2.0,94,0.00,,,0.04,Weather View 32 v70,2013-12-17 04:00:00,
2013-12-16 23:10:00,30.2,28.2,30.01,West,277,0.0,2.0,92,0.00,,,0.04,Weather View 32 v70,2013-12-17 04:10:00,
2013-12-16 23:20:00,29.3,27.3,30.01,West,277,0.0,2.0,92,0.00,,,0.04,Weather View 32 v70,2013-12-17 04:20:00,
2013-12-16 23:30:00,28.4,26.4,30.01,West,277,0.0,2.0,92,0.00,,,0.04,Weather View 32 v70,2013-12-17 04:30:00,
2013-12-16 23:40:00,28.3,26.5,30.00,West,277,0.0,1.0,93,0.00,,,0.04,Weather View 32 v70,2013-12-17 04:40:00,
2013-12-16 23:50:00,28.9,27.1,30.00,West,277,0.0,1.0,93,0.00,,,0.04,Weather View 32 v70,2013-12-17 04:50:00,